FW7308 Weather Reports


Display with metric or nautical units.
time (UTC)temp
F
wind
direction
speed
MPH
gust
MPH
rain 1hr
in
rain 24hr
in
rain mn
in
humidity
%
barometer
mb
20260507025132 45 332 3.0 6.0 0.00 0.00 0.70 99 1009.6
20260507024634 45 315 2.0 3.0 0.00 0.00 0.70 99 1009.4
20260507024133 45 338 2.0 3.0 0.00 0.00 0.70 99 1009.4
20260507023632 45 334 3.0 5.0 0.00 0.00 0.70 99 1009.4
20260507023131 45 340 1.0 1.0 0.00 0.00 0.70 99 1009.6
20260507022632 46 323 1.0 2.0 0.00 0.00 0.70 99 1009.4
20260507022132 46 334 2.0 5.0 0.00 0.00 0.69 99 1009.4
20260507021631 46 333 1.0 1.0 0.00 0.00 0.69 99 1009.8
20260507021233 46 311 3.0 3.0 0.00 0.00 0.69 99 1009.4
20260507020631 46 357 4.0 8.0 0.00 0.00 0.69 99 1009.4
20260507020131 46 341 5.0 6.0 0.00 0.00 0.69 99 1009.8
20260507015630 46 333 1.0 1.0 0.00 0.00 0.68 99 1009.4
20260507015129 47 329 2.0 3.0 0.00 0.00 0.68 99 1009.4
20260507014632 47 337 2.0 3.0 0.00 0.00 0.68 99 1009.4
20260507014130 47 2 2.0 3.0 0.00 0.00 0.67 99 1009.4
20260507013629 47 330 2.0 5.0 0.00 0.00 0.66 99 1009.1
20260507013128 48 322 2.0 2.0 0.00 0.00 0.66 99 1009.1
20260507012627 48 332 3.0 5.0 0.00 0.00 0.66 99 1009.4
20260507012128 48 330 2.0 3.0 0.00 0.00 0.66 99 1009.3
20260507011628 48 326 2.0 3.0 0.00 0.00 0.66 99 1009.1
20260507010629 50 341 0.0 2.0 0.00 0.00 0.66 99 1008.7
20260507010227 50 337 2.0 3.0 0.00 0.00 0.66 99 1008.4
20260507005626 50 345 2.0 3.0 0.00 0.00 0.66 99 1008.4
20260507005128 51 338 3.0 5.0 0.00 0.00 0.66 99 1008.2
20260507004728 51 4 3.0 5.0 0.00 0.00 0.66 99 1008.2
20260507004126 51 345 3.0 5.0 0.00 0.00 0.66 99 1008.0
20260507003625 52 335 3.0 3.0 0.00 0.00 0.66 99 1007.7
20260507003124 53 353 3.0 5.0 0.00 0.00 0.66 99 1007.7
20260507002624 53 4 2.0 5.0 0.00 0.00 0.66 99 1007.7
20260507002124 54 336 2.0 2.0 0.00 0.00 0.66 99 1007.7
20260507001623 54 337 1.0 1.0 0.00 0.00 0.66 99 1007.7
20260507001122 54 347 2.0 2.0 0.00 0.00 0.66 99 1007.3
20260507000622 54 338 1.0 1.0 0.00 0.00 0.66 99 1007.3
20260507000123 54 330 2.0 3.0 0.00 0.00 0.66 99 1007.3
20260506235121 54 313 3.0 3.0 0.00 0.00 0.66 99 1007.0
20260506234622 56 347 4.0 7.0 0.00 0.00 0.66 99 1007.0
20260506234121 56 327 1.0 3.0 0.00 0.00 0.66 99 1007.0
20260506233620 56 347 2.0 3.0 0.00 0.00 0.65 99 1007.0
20260506233120 56 329 1.0 1.0 0.00 0.00 0.62 99 1006.6
20260506232621 56 334 0.0 1.0 0.00 0.00 0.62 99 1006.6
20260506232120 56 315 0.0 1.0 0.00 0.00 0.61 99 1006.6
20260506231619 56 348 1.0 1.0 0.00 0.00 0.60 99 1006.3
20260506231118 56 0.0 0.0 0.00 0.00 0.58 99 1006.3
20260506230618 56 281 3.0 3.0 0.00 0.00 0.58 99 1006.6
20260506230119 56 112 5.0 6.0 0.00 0.00 0.55 99 1006.3
20260506225618 56 211 4.0 6.0 0.00 0.00 0.51 99 1006.3
20260506225118 56 218 3.0 5.0 0.00 0.00 0.50 99 1006.3
20260506224616 56 99 3.0 6.0 0.00 0.00 0.49 99 1006.3
20260506224119 56 323 2.0 2.0 0.00 0.00 0.48 99 1006.3
20260506223618 56 52 2.0 3.0 0.00 0.00 0.47 99 1006.3
20260506223146 56 171 4.0 6.0 0.00 0.00 0.47 99 1006.3
20260506222645 57 46 3.0 5.0 0.00 0.00 0.47 99 1006.3
20260506222147 56 101 3.0 5.0 0.00 0.00 0.47 99 1006.3
20260506221646 56 316 2.0 3.0 0.00 0.00 0.47 99 1006.3
20260506221145 56 181 3.0 5.0 0.00 0.00 0.47 99 1006.3
20260506220644 56 201 4.0 6.0 0.00 0.00 0.46 99 1006.5
20260506220143 56 4 3.0 5.0 0.00 0.00 0.46 99 1006.6
20260506215644 57 195 4.0 7.0 0.00 0.00 0.46 99 1006.6
20260506215143 57 175 8.0 10.0 0.00 0.00 0.46 99 1006.5
20260506214643 57 49 3.0 5.0 0.00 0.00 0.46 99 1006.3
20260506214142 57 166 6.0 7.0 0.00 0.00 0.46 99 1006.3
20260506213643 57 119 4.0 6.0 0.00 0.00 0.45 99 1006.3
20260506213142 57 7 2.0 3.0 0.00 0.00 0.45 99 1006.3
20260506212646 57 88 3.0 6.0 0.00 0.00 0.45 99 1006.3
20260506212141 57 140 3.0 3.0 0.00 0.00 0.45 99 1006.3
20260506211640 57 138 5.0 7.0 0.00 0.00 0.44 99 1006.5
20260506211141 57 173 6.0 10.0 0.00 0.00 0.44 99 1006.3
20260506210641 57 143 7.0 8.0 0.00 0.00 0.43 99 1006.3
20260506210139 57 155 6.0 9.0 0.00 0.00 0.43 99 1006.3
20260506205641 57 158 3.0 5.0 0.00 0.00 0.43 99 1006.3
20260506204639 57 170 7.0 8.0 0.00 0.00 0.43 99 1006.3
20260506204138 57 155 4.0 9.0 0.00 0.00 0.42 99 1006.3
20260506203639 57 106 6.0 10.0 0.00 0.00 0.42 99 1006.3
20260506202639 57 277 2.0 3.0 0.00 0.00 0.41 99 1006.3
20260506202137 57 178 7.0 11.0 0.00 0.00 0.41 99 1006.6
20260506201637 57 261 3.0 6.0 0.00 0.00 0.41 99 1006.6
20260506201138 58 80 5.0 6.0 0.00 0.00 0.41 99 1006.5
20260506200637 58 151 6.0 9.0 0.00 0.00 0.41 99 1006.6
20260506195737 58 188 7.0 10.0 0.00 0.00 0.40 99 1006.8
20260506195135 58 158 5.0 8.0 0.00 0.00 0.40 99 1006.6
20260506194635 58 159 6.0 9.0 0.00 0.00 0.40 99 1007.0
20260506194134 58 165 7.0 9.0 0.00 0.00 0.40 99 1006.8
20260506193637 58 142 6.0 8.0 0.00 0.00 0.39 99 1007.0
20260506193139 58 243 6.0 9.0 0.00 0.00 0.39 99 1007.0
20260506192634 58 121 5.0 8.0 0.00 0.00 0.39 99 1006.8
20260506192133 58 166 6.0 9.0 0.00 0.00 0.39 99 1007.0
20260506191632 58 119 7.0 9.0 0.00 0.00 0.38 99 1007.0
20260506191133 58 183 7.0 10.0 0.00 0.00 0.37 99 1007.0
20260506190632 58 169 8.0 11.0 0.00 0.00 0.37 99 1007.2
20260506190132 58 164 5.0 7.0 0.00 0.00 0.36 99 1007.0
20260506185630 58 90 4.0 7.0 0.00 0.00 0.35 99 1007.0
20260506185132 57 167 9.0 14.0 0.00 0.00 0.34 99 1007.3
20260506184632 57 170 4.0 5.0 0.00 0.00 0.33 99 1007.3
20260506184230 57 153 6.0 10.0 0.00 0.00 0.32 99 1007.3
20260506183629 57 93 3.0 5.0 0.00 0.00 0.30 99 1007.3
20260506183128 57 200 4.0 6.0 0.00 0.00 0.29 99 1007.7
20260506182630 57 162 6.0 9.0 0.00 0.00 0.27 99 1007.7
20260506182129 57 283 2.0 5.0 0.00 0.00 0.26 99 1007.7
20260506181628 57 35 2.0 2.0 0.00 0.00 0.25 99 1007.7
20260506181129 57 133 6.0 9.0 0.00 0.00 0.25 99 1008.0
20260506180628 57 352 2.0 2.0 0.00 0.00 0.24 99 1007.9
20260506180128 57 142 7.0 9.0 0.00 0.00 0.22 99 1008.4
20260506175629 57 158 6.0 8.0 0.00 0.00 0.21 99 1008.0
20260506175126 57 139 5.0 7.0 0.00 0.00 0.20 99 1008.2
20260506174727 57 111 7.0 9.0 0.00 0.00 0.18 99 1008.4
20260506174127 57 182 6.0 8.0 0.00 0.00 0.17 99 1008.7
20260506173625 57 175 4.0 7.0 0.00 0.00 0.16 99 1008.6
20260506173225 57 127 6.0 13.0 0.00 0.00 0.15 99 1008.7
20260506172624 57 113 6.0 9.0 0.00 0.00 0.14 99 1008.7
20260506172126 57 128 5.0 6.0 0.00 0.00 0.13 99 1008.7
20260506171626 57 180 3.0 5.0 0.00 0.00 0.12 99 1008.7
20260506171124 57 142 6.0 10.0 0.00 0.00 0.11 99 1009.1
20260506170623 57 144 4.0 5.0 0.00 0.00 0.09 99 1009.1
20260506170128 57 177 4.0 6.0 0.00 0.00 0.09 99 1009.1
20260506165626 57 153 3.0 5.0 0.00 0.00 0.08 99 1008.7
20260506165122 57 23 2.0 3.0 0.00 0.00 0.07 99 1008.9
20260506164622 57 213 4.0 5.0 0.00 0.00 0.06 99 1008.9
20260506164122 57 122 4.0 6.0 0.00 0.00 0.05 99 1008.7
20260506163622 57 210 5.0 7.0 0.00 0.00 0.04 99 1008.7
20260506163123 58 77 4.0 5.0 0.00 0.00 0.03 99 1009.1
20260506162724 58 81 5.0 8.0 0.00 0.00 0.03 99 1009.1
20260506162121 58 245 4.0 7.0 0.00 0.00 0.02 99 1009.1
20260506161621 58 201 5.0 11.0 0.00 0.00 0.01 99 1009.1
20260506161122 58 147 4.0 7.0 0.00 0.00 0.01 99 1009.1
20260506160620 58 102 5.0 7.0 0.00 0.00 0.01 99 1009.1
20260506160120 58 137 4.0 5.0 0.00 0.00 0.00 99 1009.3
20260506155619 58 158 7.0 9.0 0.00 0.00 0.00 98 1009.1
20260506155121 59 175 5.0 8.0 0.00 0.00 0.00 98 1009.1
20260506154619 59 144 9.0 10.0 0.00 0.00 0.00 97 1009.4
20260506154119 59 134 6.0 9.0 0.00 0.00 0.00 97 1009.4
20260506153618 58 34 3.0 3.0 0.00 0.00 0.00 97 1009.8
20260506153118 58 171 5.0 8.0 0.00 0.00 0.00 97 1009.4
20260506152620 58 157 9.0 14.0 0.00 0.00 0.00 96 1009.6
20260506152117 59 214 5.0 7.0 0.00 0.00 0.00 96 1009.8
20260506151617 58 107 3.0 5.0 0.00 0.00 0.00 96 1009.8
20260506151116 58 148 3.0 5.0 0.00 0.00 0.00 96 1009.8
20260506150619 58 92 4.0 7.0 0.00 0.00 0.00 95 1009.8
20260506150146 58 125 4.0 6.0 0.00 0.00 0.00 94 1010.1
20260506145647 58 170 5.0 7.0 0.00 0.00 0.00 93 1010.1
20260506144646 58 182 4.0 5.0 0.00 0.00 0.00 93 1010.1
20260506144145 58 124 3.0 5.0 0.00 0.00 0.00 93 1010.1
20260506143143 58 231 5.0 7.0 0.00 0.00 0.00 92 1010.1
20260506142645 58 119 4.0 5.0 0.00 0.00 0.00 92 1009.8
20260506142144 58 133 6.0 10.0 0.00 0.00 0.00 92 1009.8
20260506141643 58 58 3.0 5.0 0.00 0.00 0.00 92 1009.8
20260506141142 59 139 7.0 8.0 0.00 0.00 0.00 92 1009.8
20260506140742 59 144 6.0 7.0 0.00 0.00 0.00 93 1009.8
20260506140243 58 186 7.0 8.0 0.00 0.00 0.00 93 1009.8
20260506135641 58 132 6.0 8.0 0.00 0.00 0.00 93 1009.4
20260506135141 58 257 6.0 8.0 0.00 0.00 0.00 93 1009.4
20260506134640 58 127 6.0 10.0 0.00 0.00 0.00 94 1009.6
20260506134141 57 137 6.0 7.0 0.00 0.00 0.00 95 1009.8
20260506133640 57 129 3.0 3.0 0.00 0.00 0.00 96 1009.8
20260506133139 56 32 1.0 2.0 0.00 0.00 0.00 96 1009.8
20260506132638 56 178 5.0 8.0 0.00 0.00 0.00 96 1009.8
20260506132140 56 172 5.0 6.0 0.00 0.00 0.00 96 1009.8
20260506131639 56 266 2.0 2.0 0.00 0.00 0.00 97 1009.8
20260506131138 56 170 7.0 10.0 0.00 0.00 0.00 97 1010.1
20260506130637 56 185 5.0 7.0 0.00 0.00 0.00 97 1010.1
20260506130137 55 158 7.0 7.0 0.00 0.00 0.00 97 1010.1
20260506125638 55 61 3.0 5.0 0.00 0.00 0.00 97 1010.1
20260506125237 55 199 6.0 8.0 0.00 0.00 0.00 97 1010.1
20260506124636 55 167 4.0 6.0 0.00 0.00 0.00 97 1010.1
20260506124135 55 33 4.0 5.0 0.00 0.00 0.00 97 1010.5
20260506123637 55 321 2.0 2.0 0.00 0.00 0.00 97 1010.5
20260506123136 55 155 5.0 9.0 0.00 0.00 0.00 97 1010.1
20260506122635 55 40 2.0 5.0 0.00 0.00 0.00 98 1010.3
20260506122134 55 247 5.0 6.0 0.00 0.00 0.00 97 1010.1
20260506121635 55 193 5.0 7.0 0.00 0.00 0.00 98 1010.1
20260506121134 55 168 6.0 7.0 0.00 0.00 0.00 98 1009.8
20260506120734 55 168 6.0 7.0 0.00 0.00 0.00 98 1009.8
20260506120133 55 82 5.0 7.0 0.00 0.00 0.00 98 1009.8
20260506115634 55 137 4.0 6.0 0.00 0.00 0.00 98 1010.0
20260506115134 55 121 6.0 7.0 0.00 0.00 0.00 98 1009.8
20260506114736 55 220 3.0 5.0 0.00 0.00 0.00 98 1010.1
20260506114232 54 75 4.0 6.0 0.00 0.00 0.00 98 1010.1
20260506113637 54 306 3.0 5.0 0.00 0.00 0.00 98 1010.1
20260506113132 54 61 1.0 2.0 0.00 0.00 0.00 98 1010.1
20260506111736 55 185 7.0 8.0 0.00 0.00 0.00 97 1010.1
20260506111231 55 139 4.0 5.0 0.00 0.00 0.00 97 1010.1
20260506110630 55 267 5.0 7.0 0.00 0.00 0.00 97 1010.5
20260506110129 55 94 5.0 6.0 0.00 0.00 0.00 97 1010.1
20260506105631 55 295 2.0 2.0 0.00 0.00 0.00 97 1010.1
20260506105130 55 295 2.0 2.0 0.00 0.00 0.00 97 1010.1
20260506104629 55 146 4.0 6.0 0.00 0.00 0.00 96 1010.1
20260506104128 54 42 3.0 5.0 0.00 0.00 0.00 96 1010.1
20260506103627 54 344 2.0 3.0 0.00 0.00 0.00 97 1009.8
20260506103128 54 58 4.0 5.0 0.00 0.00 0.00 97 1010.1
20260506102627 54 58 4.0 5.0 0.00 0.00 0.00 97 1009.8
20260506102126 54 80 3.0 5.0 0.00 0.00 0.00 97 1009.8
20260506101631 54 47 3.0 5.0 0.00 0.00 0.00 97 1010.1
20260506101225 0 0.0 0.0 0.00 0.00 0.00 1010.1
20260506100626 0 0.0 0.0 0.00 0.00 0.00 1010.1
20260506100125 0 0.0 0.0 0.00 0.00 0.00 1010.1
20260506095624 0 0.0 0.0 0.00 0.00 0.00 1010.0
20260506095124 0 0.0 0.0 0.00 0.00 0.00 1010.1
20260506094625 0 0.0 0.0 0.00 0.00 0.00 1010.1
20260506094124 0 0.0 0.0 0.00 0.00 0.00 1009.8
20260506093623 0 0.0 0.0 0.00 0.00 0.00 1009.8
20260506093122 0 0.0 0.0 0.00 0.00 0.00 1010.1
20260506092624 0 0.0 0.0 0.00 0.00 0.00 1010.1
20260506092123 0 0.0 0.0 0.00 0.00 0.00 1010.1
20260506091622 0 0.0 0.0 0.00 0.00 0.00 1009.8
20260506091121 0 0.0 0.0 0.00 0.00 0.00 1009.8
20260506090622 0 0.0 0.0 0.00 0.00 0.00 1010.0
20260506090122 0 0.0 0.0 0.00 0.00 0.00 1010.1
20260506085621 0 0.0 0.0 0.00 0.00 0.00 1010.1
20260506085120 0 0.0 0.0 0.00 0.00 0.00 1009.8
20260506084621 0 0.0 0.0 0.00 0.00 0.00 1010.1
20260506084121 0 0.0 0.0 0.00 0.00 0.00 1010.5
20260506083620 0 0.0 0.0 0.00 0.00 0.00 1010.1
20260506083119 0 0.0 0.0 0.00 0.00 0.00 1010.1
20260506082618 0 0.0 0.0 0.00 0.00 0.00 1010.1
20260506082117 0 0.0 0.0 0.00 0.00 0.00 1010.1
20260506081618 0 0.0 0.0 0.00 0.00 0.00 1010.3
20260506081118 0 0.0 0.0 0.00 0.00 0.00 1010.1
20260506080617 0 0.0 0.0 0.00 0.00 0.00 1010.1
20260506080118 0 0.0 0.0 0.00 0.00 0.00 1010.5
20260506073146 0 0.0 0.0 0.00 0.00 0.00 1010.5
20260506072645 0 0.0 0.0 0.00 0.00 0.00 1010.5
20260506072244 0 0.0 0.0 0.00 0.00 0.00 1010.5
20260506071646 0 0.0 0.0 0.00 0.00 0.00 1010.5
20260506071144 0 0.0 0.0 0.00 0.00 0.00 1010.7
20260506070745 0 0.0 0.0 0.00 0.00 0.00 1010.5
20260506070146 0 0.0 0.0 0.00 0.00 0.00 1010.5
20260506062240 0 0.0 0.0 0.00 0.00 0.00 1010.5
20260506061642 0 0.0 0.0 0.00 0.00 0.00 1010.5
20260506061140 0 0.0 0.0 0.00 0.00 0.00 1010.5
20260506060740 0 0.0 0.0 0.00 0.00 0.00 1010.5
20260506060142 0 0.0 0.0 0.00 0.00 0.00 1010.5
20260506051136 0 0.0 0.0 0.00 0.00 0.00 1010.9
20260506050636 0 0.0 0.0 0.00 0.00 0.00 1010.9
20260506050136 60 337 1.0 2.0 0.00 0.00 0.00 82 1010.7
20260506045136 60 70 3.0 5.0 0.00 0.00 0.00 81 1010.5
20260506043133 61 80 4.0 6.0 0.00 0.00 0.00 80 1010.9
20260506042631 61 203 5.0 6.0 0.00 0.00 0.00 81 1010.9
20260506042132 61 351 3.0 3.0 0.00 0.00 0.00 81 1010.5
20260506041132 61 212 3.0 7.0 0.00 0.00 0.00 81 1010.7
20260506040632 61 66 4.0 6.0 0.00 0.00 0.00 82 1010.7
20260506040131 61 1 2.0 2.0 0.00 0.00 0.00 83 1010.5
20260506035630 62 155 3.0 6.0 0.00 0.00 0.01 83 1010.5
20260506035131 62 14 2.0 3.0 0.00 0.00 0.01 83 1010.5
20260506034630 62 354 1.0 1.0 0.00 0.00 0.01 82 1010.5
20260506034131 62 2 1.0 2.0 0.00 0.00 0.01 83 1010.1
20260506033629 62 345 1.0 1.0 0.00 0.00 0.01 82 1010.5
20260506033128 62 49 3.0 5.0 0.00 0.00 0.01 82 1010.5
20260506032629 62 49 3.0 5.0 0.00 0.00 0.01 82 1010.5
20260506032129 62 239 3.0 5.0 0.00 0.00 0.01 82 1010.5
20260506031628 62 239 3.0 5.0 0.00 0.00 0.01 82 1010.7
20260506031127 0 0.0 0.0 0.00 0.00 0.01 1010.9
20260506030627 0 0.0 0.0 0.00 0.00 0.01 1010.9
20260506030125 0 0.0 0.0 0.00 0.00 0.01 1010.9